Weather Roundup
Issued by NWS Springfield, MO

Home | Current Version | Previous Version | Text Only | Print | Product List | Glossary On
Versions: 1 2 3 4 5 6 7 8 9 10 11 12 13 14 15 16 17 18 19 20 21 22 23 24 25 26 27 28 29 30 31 32 33 34 35 36 37 38 39 40 41 42 43 44 45 46 47 48 49 50
000
NZUS99 KSGF 210507
HRRSGF

HOURLY WEATHER
NATIONAL WEATHER SERVICE SPRINGFIELD MO
1100 PM CST MON FEB 20 2017

......SGF CWA......

CITY           SKY/WX    TMP DP  RH WIND       PRES   REMARKS
SPRINGFIELD    LGT RAIN  57  55  93 CALM      29.93F
JOPLIN         CLOUDY    56  54  93 S3        29.93S
WEST PLAINS    HVY RAIN  62  59  90 SE5       29.95R VSB 3/4
ROLLA          RAIN      59  59 100 CALM      29.94R FOG
OSAGE BEACH    LGT RAIN  58  56  93 S3        29.95R
BRANSON        LGT RAIN  57  57 100 CALM      29.94F

......SURROUNDING SGF CWA......

CITY           SKY/WX    TMP DP  RH WIND       PRES   REMARKS
CHANUTE        MOCLDY    51  49  92 W3        29.92S
PARSONS        CLOUDY    49  48  97 CALM      29.93S
COFFEYVILLE    CLOUDY    51  50  96 CALM      29.92S
EMPORIA        CLEAR     48  48 100 NW7       29.93S
GROVE OK       CLOUDY    55  54  94 CALM      29.93F
ROGERS AR      CLOUDY    56  54  93 NW3       29.93R
SILOAM SPRINGS CLOUDY    55  52  88 CALM      29.94S
HARRISON AR    RAIN      57  57 100 N5        29.92F FOG
NEAR YELLVILLE CLOUDY    61  55  82 N6        29.90S

......KANSAS AND MISSOURI......

CITY           SKY/WX    TMP DP  RH WIND       PRES   REMARKS
KANSAS CTY INT CLOUDY    56  51  84 W5        29.92S
DOWNTOWN KC    MOCLDY    60  52  74 W5        29.91S
COLUMBIA       LGT RAIN  59  58  96 SW5       29.94R
SEDALIA        CLOUDY    58  55  90 SW6       29.94S
ST JOSEPH      MOCLDY    56  52  86 N12       29.92S
ST LOUIS       CLOUDY    67  54  63 S6        29.93R
SPIRIT OF STL  MOCLDY    66  56  70 S7        29.91F
KIRKSVILLE     CLOUDY    59  55  87 SW6       29.91S
WICHITA        CLEAR     52  43  71 NW13      29.95R
TOPEKA         PTCLDY    54  49  83 NW6       29.92F
OLATHE         PTCLDY    57  53  86 W7        29.92R

......TENNESSEE......

CITY           SKY/WX    TMP DP  RH WIND       PRES   REMARKS
MEMPHIS        CLOUDY    70  50  49 SE13      29.89F
NASHVILLE      MOCLDY    61  44  53 SE7       30.03F

......ARKANSAS.......

CITY           SKY/WX    TMP DP  RH WIND       PRES   REMARKS
FAYETTEVILLE   CLOUDY    57  57 100 W5        29.94S
FT SMITH       CLOUDY    59  56  89 W3        29.92R
LITTLE ROCK    RAIN      58  58 100 NW6       29.92F FOG

......OKLAHOMA.......

CITY           SKY/WX    TMP DP  RH WIND       PRES   REMARKS
TULSA          CLOUDY    54  53  97 CALM      29.91R
PONCA CITY     CLEAR     47  45  93 VRB5      29.92S
MCALESTER      FOG       50  46  86 CALM      29.91F VSB 1/2
OKLAHOMA CITY  CLEAR     52  50  93 S3        29.91F

......IOWA............

CITY           SKY/WX    TMP DP  RH WIND       PRES   REMARKS
DES MOINES     CLOUDY    54  46  74 NW7       29.91R
QUAD CITIES    LGT RAIN  60  55  83 CALM      29.87F

......ILLINOIS........

CITY           SKY/WX    TMP DP  RH WIND       PRES   REMARKS
QUINCY         LGT RAIN  60  59  96 S5        29.92R FOG
CHICAGO        CLOUDY    60  45  57 S16       29.90F




USA.gov is the U.S. government's official web portal to all federal, state and local government web resources and services.